Погода в Саскылахе

Погода в Саскылахе : погода сейчас, прогноз погоды и архив. Всё, что Вы хотите узнать о погоде в Саскылахе!

Хотите узнать прогноз погоды в Саскылахе? Тогда Вам сюда: Погода в Саскылахе

Поиск расширенной информации на нашем сайте:

Другие новости

Новости СМИ2

Главная страница сайта

Новости сайта

03.07.2017

Напоминаем, что на нашем специализированном сайте Метеоцентр.Азия вы можете получить высокодетализированные автоматические прогнозы погоды по пунктам России, СНГ и мира в авиационном формате (включающие направление и скорость ветра, видимость, явления погоды, количество и форму облачности, нижнюю и верхнюю границу облачности).

Рекомендуем: разместить услугу

Погода в Саскылахе - сегодня

Время (UTC), дата Ветер
(°,м/с) 
Видим.   Явления Облачность Т
(°С)
Тd
(°С)
f(%) Тe
(°С)
Pmin
(гПа)
dP
(гПа)
Po
(мм)
O2
(г/м3)
Тmin Tmax R s Состояние
почвы
06 18.07.17 260 (З) 20000 м  в посл. час дождь  10/10 700 м 
[Ns]
+12.2 +9.2 82 +12  1012.2  0.5  758  291           
09 18.07.17 230 (ЮЗ) 20000 м    10/10 750 м 
[Sc]
+14.6 +9.1 70 +14  1012.3  0.1  758  288           
12 18.07.17 060 (СВ) н/о    н/о 
+13.7 +10 78 +14  1007.4  -0.5  754  288    +15.4       
15 18.07.17 070 (В) н/о    н/о 
+7.9 +4.5 79 +6  1008.5  755  295           
18 18.07.17 050 (СВ) н/о    н/о 
+5.5 +2.1 79 +5  1010.1  1.6  756  298           
21 18.07.17 020 (С) н/о    н/о 
+1.8 +0.1 88 1011.9  1.7  757  303           
00 19.07.17 010 (С) 20000 м    10/10 400 м 
[Sc]
+3.1 -0.5 77 +2  1013.9  0.6  759  302  +1.7        сухая 
03 19.07.17 300 (СЗ) 20000 м    10/10 600 м 
[Sc]
+4.7 +0.5 74 +3  1014.4  0.5  759  301           
06 19.07.17 330 (СЗ) 20000 м    10/10 660 м 
[Sc]
+5.4 +0.7 72 +4  1014.9  0.5  759  300           
09 19.07.17 350 (С) 20000 м    10/10 800 м 
[Sc]
+5.3 +0 69 +3  1015.4  0.5  760  300           
12 19.07.17 030 (СВ) н/о    н/о 
+3.3 -0.6 76 +1  1017.6  1.6  762  303    +5.9       
15 19.07.17 010 (С) н/о    н/о 
+2.3 +0.3 87 +1  1018.6  762  305           
18 19.07.17 010 (С) н/о    н/о 
+2.5 -0.5 81 1019.6  763  305           
21 19.07.17 010 (С) н/о    н/о 
+3.1 -0.3 78 +1  1021.3  1.6  764  305           
00 20.07.17 330 (СЗ) 20000 м    10/10 1200 м 
[Sc]
+4.5 +0.8 77 +3  1023  1.1  766  303  +2.2        сухая 
03 20.07.17 330 (СЗ) 20000 м  слаб. дождь  10/10 500 м 
[Ns]
+5.9 +1.9 75 +4  1023.2  0.2  766  302           
06 20.07.17 310 (СЗ) 20000 м  {дождь}  10/10 720 м 
[Sc]
+7.4 +1.4 66 +6  1023.8  -0.4  765  300           
09 20.07.17 тихо ()   20000 м    ясно 
+10.3 +1 52 +10  1022.4  -0.4  765  297           
12 20.07.17 170 (Ю) н/о    н/о 
+10.6 +1.9 55 +10  1021.6  -0.6  765  296    +11.7       
15 20.07.17 190 (Ю) н/о    н/о 
+7.8 +2.7 70 +8  1020.9  -0.7  764  299           
18 20.07.17 140 (ЮВ) н/о    н/о 
+6.4 +2.8 78 +6  1020.1  -0.8  764  300           
21 20.07.17 140 (ЮВ) н/о    н/о 
+8.5 +3.7 72 +9  1019.4  -0.6  763  298           
00 21.07.17 270 (З) 20000 м    3/0 верхняя 
[Ci fib]
+15.8 +4.8 48 +16  1017.9  -1.4  762  290  +6.2        сухая 
03 21.07.17 280 (З) 20000 м    8/6 1020 м средняя 
[Sc|Ac cast]
+18.5 +5.8 43 +19  1017.7  -1.6  762  287           
06 21.07.17 290 (З) 20000 м    10/0 средняя 
[As op]
+16.2 +7.1 55 +16  1016.7  -1  761  288           
Время (UTC), дата Ветер
(°,м/с) 
Видим.   Явления Облачность Т
(°С)
Тd
(°С)
f(%) Тe
(°С)
Pmin
(гПа)
dP
(гПа)
Po
(мм)
O2
(г/м3)
Тmin Tmax R s Состояние
почвы

Для получения пояснительной информации подведите курсор к названию столбца.

ПОГОДА в Саскылахе - архив

Всё, что Вы хотите узнать о погоде в Саскылахе - удобно и подробно!

Выберите нужную дату (начиная с 1 января 2015* года) и нажмите кнопку "Найти".
Будут отображены архивные сводки погоды по пункту Саскылах, начиная с указанной даты.


Отображать данные в формате CSV (для использования в таблицах Excel)


Внимание! Наш архив погоды предназначен исключительно для личного некоммерческого использования в познавательных целях. Если Вам необходимы официальные справки о состоянии погоды (для производственных, юридических, коммерческих и т.п. целей), обращайтесь в органы Росгидромета.

*Примечание: данная дата относится к архиву по метеостанциям СССР (Россия, СНГ, Балтия).
Архив по метеостанциям Зарубежной Европы и Азии (кроме Китая) хранится 10 дней, по другим регионам земного шара (Китай, Африка, Америка, Австралия, Океания) - 1 день.

Саскылах - район местоположения метеостанции


Название, широта, долгота, высота метеостанции:
Саскылах 72°ш. 114.1°д. 18 м над ур. моря [Российская Федерация]

Дополнительная информация

В oтличие oт бoльшинства пoгoдных сайтoв мы публикуем пoдрoбную метеoинфoрмацию в детальнoм прoфессиoнальнoм фoрмате.

Характеристики температуры и влажнoсти вoздуха измеряются на высoте 2 м в тени вдали oт зданий и деревьев.
Скoрoсть ветра измеряется на высoте 10 м (на урoвне рoста челoвека скoрoсть ветра ниже в 1.5-2 раза). Если метеoстанция нахoдится в гoрoде или в лесу, тo скoрoсть ветра занижена на 2-4 м/с пo сравнению с oткрытым местoм. Скoрoсть ветра над акватoриями крупных рек и oзёр, а также на вершинах хoлмoв на 2-5 м/с выше, чем в oбычных услoвиях.
Атмoсфернoе давление в разных тoчках местнoсти мoжет значительнo oтличаться oт давления на метеoстанции, в зависимoсти oт услoвий рельефа (при пoдъёме на 10 м давление пoнижается примернo на 1 мм рт.ст.).